This is the latest recevied weather packets stored in our database for station/object N0NPO. If no packets are shown the sender has not sent any weather packets the latest 1 day(s).
| Time | Temp. | Humidity | Pressure | Rain* | Wind** | Luminosity | Snow |
|---|---|---|---|---|---|---|---|
| 1778192315 | 17.78° C | 1% | 1013 hPa | 0 mm | - | 469 W/m² | - |
| 1778191102 | 17.22° C | 1% | 1013.2 hPa | 0 mm | - | 486 W/m² | - |
| 1778190194 | 17.78° C | 1% | 1013.4 hPa | 0 mm | - | 573 W/m² | - |
| 1778189586 | 17.22° C | 1% | 1013.5 hPa | 0 mm | - | 552 W/m² | - |
| 1778188675 | 17.22° C | 1% | 1013.6 hPa | 0 mm | - | 591 W/m² | - |
| 1778186855 | 16.67° C | 1% | 1013.8 hPa | 0 mm | - | 598 W/m² | - |
| 1778185948 | 16.67° C | 1% | 1013.8 hPa | 0 mm | - | 673 W/m² | - |
| 1778185035 | 16.11° C | 1% | 1014 hPa | 0 mm | - | 604 W/m² | - |
| 1778180788 | 16.11° C | 1% | 1014.2 hPa | 0 mm | - | 674 W/m² | - |
| 1778180487 | 14.44° C | 1% | 1014.4 hPa | 0 mm | - | 724 W/m² | - |
| 1778180185 | 15.56° C | 1% | 1014.6 hPa | 0 mm | - | 711 W/m² | - |
| 1778178366 | 14.44° C | 1% | 1014.8 hPa | 0 mm | - | 661 W/m² | - |
| 1778178062 | 15° C | 1% | 1014.5 hPa | 0 mm | - | 708 W/m² | - |
| 1778176849 | 14.44° C | 1% | 1014.9 hPa | 0 mm | - | 741 W/m² | - |
| 1778174727 | 13.89° C | 1% | 1014.9 hPa | 0 mm | - | 673 W/m² | - |
| 1778171390 | 13.33° C | 1% | 1015.4 hPa | 0 mm | - | 766 W/m² | - |
| 1778171086 | 13.33° C | 1% | 1015.5 hPa | 0 mm | - | 661 W/m² | - |
| 1778170783 | 13.33° C | 1% | 1015.4 hPa | 0 mm | - | 711 W/m² | - |
| 1778170479 | 13.33° C | 1% | 1015.5 hPa | 0 mm | - | 702 W/m² | - |
| 1778170176 | 13.33° C | 1% | 1015.5 hPa | 0 mm | - | 705 W/m² | - |
| 1778169872 | 12.22° C | 1% | 1015.8 hPa | 0 mm | - | 702 W/m² | - |
| 1778169264 | 12.22° C | 1% | 1015.7 hPa | 0 mm | - | 679 W/m² | - |
| 1778168658 | 12.22° C | 1% | 1015.5 hPa | 0 mm | - | 668 W/m² | - |
| 1778168052 | 11.67° C | 1% | 1015.6 hPa | 0 mm | - | 548 W/m² | - |
* Rain latest hour (hover to see other rain measurements)
** Current wind speed in m/s (hover to see current wind gust speed)